Weather Roundup
Issued by NWS

Home | Current Version | Previous Version | Graphics & Text | Print | Product List | Glossary Off
Versions: 1 2 3 4 5 6 7 8 9 10 11 12 13 14 15 16 17 18 19 20 21 22 23 24 25 26 27 28 29 30 31 32 33 34 35 36 37 38 39 40 41 42 43 44 45 46 47 48 49 50

000
NZUS93 KARX 021059
HRRWXR

CURRENT HOURLY OBSERVATIONS ACROSS
MUCH OF THE UPPER MISSISSIPPI VALLEY
NATIONAL WEATHER SERVICE LA CROSSE WI
500 AM CST MON MAR 02 2015


...SOUTHEAST MINNESOTA...


CITY           SKY/WX    TMP DP  RH WIND       PRES   REMARKS
ROCHESTER      PTCLDY     5   3  91 NW10      30.42R WCI -10
ROCHESTER/MAYO FAIR      11   7  81 W8        30.43R WCI   0
WINONA         CLEAR     12   9  85 NW5       30.46R WCI   4
AUSTIN         PTCLDY     9   7  92 NW6       30.44R WCI  -1
ALBERT LEA     CLEAR      9   7  92 CALM      30.44S
DODGE CENTER   PTCLDY    10   7  85 NW8       30.41R WCI  -1
PRESTON        PTCLDY     9   5  86 NW8       30.42R WCI  -4
OWATONNA       MOCLDY     7   3  85 CALM      30.44R
FARIBAULT      MOCLDY     7   3  85 CALM      30.45R
$$

...ELSEWHERE IN MINNESOTA...


CITY           SKY/WX    TMP DP  RH WIND       PRES   REMARKS
MINNEAPOLIS    PTCLDY    12   6  77 W3        30.47R
INTNL FALLS    PTCLDY   -11 -14  86 SW3       30.29S
DULUTH         PTCLDY     7   2  80 NW10      30.31S WCI  -8
RED WING       CLEAR      9   1  72 CALM      30.47R
REDWOOD FALLS  MOCLDY     8   4  83 W5        30.45F WCI   0
MANKATO        FAIR       9   3  78 W3        30.46R
FAIRMONT       PTCLDY     7   1  78 CALM      30.44S
$$

...SOUTHWEST WISCONSIN...


CITY           SKY/WX    TMP DP  RH WIND       PRES   REMARKS
LA CROSSE      CLEAR     10   7  87 N6        30.44R WCI   0
PRAIRIE DU CHI PTCLDY     8   4  86 CALM      30.46R
BOSCOBEL       FAIR       2  -2  83 CALM      30.46R
LONE ROCK      NOT AVBL
PLATTEVILLE    CLEAR     11   8  88 SW7       30.43R WCI   0
FORT MC COY    CLEAR      3  -1  83 CALM      30.43R
VIROQUA        FAIR      11   9  92 N3        30.37F
WIS DELLS      NOT AVBL
$$

...ELSEWHERE IN WISCONSIN...


CITY           SKY/WX    TMP DP  RH WIND       PRES   REMARKS
MILWAUKEE      CLEAR     16   7  67 W8        30.42R WCI   5
MADISON        CLEAR      9   4  80 CALM      30.42R
GREEN BAY      CLEAR     13   7  77 W7        30.37R WCI   3
EAU CLAIRE     NOT AVBL
BLACK RVR FLS  FAIR      10   4  78 CALM      30.43R
MEDFORD        CLEAR      7   3  84 NW6       30.34R WCI  -3
WAUSAU         PTCLDY    10   5  80 W8        30.34R WCI  -2
WIS RAPIDS     CLEAR      9   4  80 W5        30.41R WCI   1
MARSHFIELD     CLEAR     10   4  76 NW9       30.37R WCI  -3
RICE LAKE      FAIR       2  -1  85 CALM      30.42S
$$

...NORTHEAST IOWA...


CITY           SKY/WX    TMP DP  RH WIND       PRES   REMARKS
DECORAH        PTCLDY    12   9  85 W5        30.42R WCI   4
MASON CITY     PTCLDY     4   2  91 NW8       30.47R WCI  -9
CHARLES CITY   PTCLDY     5   3  92 W7        30.45R WCI  -7
OELWEIN        MOCLDY     5   3  92 W8        30.46R WCI  -8
$$

...ELSEWHERE IN IOWA...


CITY           SKY/WX    TMP DP  RH WIND       PRES   REMARKS
DES MOINES     CLEAR     20  12  71 CALM      30.51R
IOWA CITY      PTCLDY    10   7  87 CALM      30.52R
FORT DODGE     PTCLDY     5   1  85 CALM      30.49R
$$

...NORTHERN ILLINOIS...


CITY           SKY/WX    TMP DP  RH WIND       PRES   REMARKS
CHICAGO-OHARE  CLEAR     15   8  73 W9        30.44R WCI   3
CHICAGO-MIDWAY PTCLDY    17   9  70 W8        30.45R WCI   7
MOLINE         PTCLDY     5   2  87 W5        30.50R WCI  -4
ROCKFORD       PTCLDY    10   5  80 SW3       30.47R
PEORIA         MOCLDY    22  12  65 NW6       30.50R WCI  14
$$

NOTE: "FAIR" INDICATES FEW OR NO CLOUDS BELOW 12,000 FEET WITH NO
SIGNIFICANT WEATHER AND/OR OBSTRUCTIONS TO VISIBILITY. WIND
SPEEDS ARE IN MILES-PER-HOUR.



USA.gov is the U.S. government's official web portal to all federal, state and local government web resources and services.